When you browse on this site, cookies collect data to enhance your experience and personalize the content and advertising you see.
Visit our Privacy Policy to learn more. By continuing to use the site, you agree to this use of cookies and data.
  • In Schweiz
  • Länderverzeichnis
  • Für 7 Tage
  • Wassertemperatur
  • Satellitenkarten
  • Wetterkarte
  • Widgets
  • user-avatar
    Anmelden

    Stündliche Wetter Satif

    Heute, 20 Januar, Sonntag

    Zeit Temperatur Niederschläge Wind Luftdruck Luftfeuchtigkeit
    00:00 +2°C° 0 mm 1 m/S 668 mmHg 89%
    01:00 +2°C° 0 mm 1 m/S 667 mmHg 88%
    02:00 +2°C° 0 mm 1 m/S 667 mmHg 86%
    03:00 +2°C° 0 mm 1 m/S 667 mmHg 84%
    04:00 +2°C° 0 mm 1 m/S 667 mmHg 82%
    05:00 +1°C° 0 mm 2 m/S 666 mmHg 81%
    06:00 +1°C° 0 mm 2 m/S 666 mmHg 79%
    07:00 +2°C° 0 mm 2 m/S 666 mmHg 78%
    08:00 +2°C° 0 mm 3 m/S 667 mmHg 76%
    09:00 +3°C° 0 mm 3 m/S 667 mmHg 74%
    10:00 +5°C° 0.1 mm 4 m/S 667 mmHg 73%
    11:00 +6°C° 0.1 mm 5 m/S 667 mmHg 71%
    12:00 +7°C° 0.1 mm 5 m/S 666 mmHg 70%
    13:00 +6°C° 0.6 mm 5 m/S 666 mmHg 73%
    14:00 +5°C° 0.6 mm 5 m/S 665 mmHg 76%
    15:00 +4°C° 0.6 mm 6 m/S 665 mmHg 79%
    16:00 +3°C° 0.5 mm 5 m/S 665 mmHg 82%
    17:00 +4°C° 0.5 mm 4 m/S 665 mmHg 85%
    18:00 +3°C° 0.5 mm 3 m/S 664 mmHg 88%
    19:00 +3°C° 0.1 mm 3 m/S 664 mmHg 89%
    20:00 +3°C° 0.1 mm 3 m/S 664 mmHg 91%
    21:00 +3°C° 0.1 mm 3 m/S 664 mmHg 92%
    22:00 +4°C° 0 mm 2 m/S 664 mmHg 92%
    23:00 +3°C° 0 mm 2 m/S 664 mmHg 93%

    Morgen, 21 Januar, Montag

    Zeit Temperatur Niederschläge Wind Luftdruck Luftfeuchtigkeit
    00:00 +3°C° 0 mm 2 m/S 664 mmHg 94%
    01:00 +3°C° 0.1 mm 2 m/S 664 mmHg 94%
    02:00 +3°C° 0.1 mm 2 m/S 664 mmHg 94%
    03:00 +3°C° 0.1 mm 2 m/S 664 mmHg 94%
    04:00 +2°C° 0 mm 3 m/S 664 mmHg 94%
    05:00 +2°C° 0 mm 3 m/S 664 mmHg 93%
    06:00 +1°C° 0 mm 4 m/S 664 mmHg 93%
    07:00 +2°C° 0 mm 5 m/S 664 mmHg 87%
    08:00 +3°C° 0 mm 6 m/S 665 mmHg 81%
    09:00 +4°C° 0 mm 7 m/S 665 mmHg 76%
    10:00 +4°C° 0.3 mm 7 m/S 665 mmHg 76%
    11:00 +4°C° 0.3 mm 7 m/S 666 mmHg 77%
    12:00 +4°C° 0.3 mm 7 m/S 666 mmHg 77%
    13:00 +4°C° 0.8 mm 7 m/S 666 mmHg 80%
    14:00 +2°C° 0.8 mm 8 m/S 666 mmHg 83%
    15:00 +1°C° 0.8 mm 8 m/S 666 mmHg 86%
    16:00 +2°C° 0.1 mm 7 m/S 667 mmHg 86%
    17:00 +2°C° 0.1 mm 6 m/S 667 mmHg 87%
    18:00 +1°C° 0.1 mm 5 m/S 668 mmHg 88%
    19:00 +1°C° 0.2 mm 5 m/S 668 mmHg 88%
    20:00 +1°C° 0.2 mm 4 m/S 669 mmHg 87%
    21:00 +1°C° 0.2 mm 4 m/S 669 mmHg 87%
    22:00 +2°C° 0.1 mm 3 m/S 669 mmHg 88%
    23:00 +1°C° 0.1 mm 3 m/S 669 mmHg 90%

    übermorgen, 22 Januar, Dienstag

    Zeit Temperatur Niederschläge Wind Luftdruck Luftfeuchtigkeit
    00:00 +1°C° 0.1 mm 3 m/S 669 mmHg 91%
    01:00 +1°C° 0 mm 3 m/S 669 mmHg 89%
    02:00 +1°C° 0 mm 3 m/S 669 mmHg 88%
    03:00 +1°C° 0 mm 3 m/S 669 mmHg 86%
    04:00 0°C° 0 mm 3 m/S 669 mmHg 88%
    05:00 +1°C° 0 mm 2 m/S 669 mmHg 90%
    06:00 +1°C° 0 mm 2 m/S 669 mmHg 92%
    07:00 +1°C° 0 mm 2 m/S 669 mmHg 89%
    08:00 +2°C° 0 mm 2 m/S 669 mmHg 86%
    09:00 +2°C° 0 mm 2 m/S 669 mmHg 82%
    10:00 +3°C° 0 mm 2 m/S 669 mmHg 75%
    11:00 +3°C° 0 mm 3 m/S 669 mmHg 68%
    12:00 +4°C° 0 mm 3 m/S 669 mmHg 61%
    13:00 +4°C° 0 mm 3 m/S 669 mmHg 59%
    14:00 +4°C° 0 mm 3 m/S 668 mmHg 57%
    15:00 +5°C° 0 mm 3 m/S 667 mmHg 55%
    16:00 +4°C° 0 mm 3 m/S 667 mmHg 61%
    17:00 +4°C° 0 mm 2 m/S 666 mmHg 67%
    18:00 +3°C° 0 mm 2 m/S 666 mmHg 72%
    19:00 +3°C° 0 mm 2 m/S 666 mmHg 75%
    20:00 +1°C° 0 mm 3 m/S 666 mmHg 77%
    21:00 +1°C° 0 mm 3 m/S 665 mmHg 79%
    22:00 +1°C° 0 mm 3 m/S 665 mmHg 77%
    23:00 0°C° 0 mm 4 m/S 664 mmHg 74%

    23 Januar, Mittwoch

    Zeit Temperatur Niederschläge Wind Luftdruck Luftfeuchtigkeit
    00:00 0°C° 0 mm 4 m/S 663 mmHg 72%
    01:00 -1°C° 0.1 mm 4 m/S 662 mmHg 75%
    02:00 -1°C° 0.1 mm 5 m/S 662 mmHg 78%
    03:00 -1°C° 0.1 mm 5 m/S 661 mmHg 81%
    04:00 -1°C° 0.7 mm 5 m/S 660 mmHg 84%
    05:00 0°C° 0.7 mm 5 m/S 660 mmHg 87%
    06:00 0°C° 0.7 mm 5 m/S 660 mmHg 91%
    07:00 -1°C° 0.6 mm 6 m/S 660 mmHg 89%
    08:00 -1°C° 0.6 mm 6 m/S 660 mmHg 87%
    09:00 -1°C° 0.6 mm 7 m/S 660 mmHg 86%
    10:00 -1°C° 0.2 mm 8 m/S 660 mmHg 83%
    11:00 0°C° 0.2 mm 9 m/S 659 mmHg 79%
    12:00 -1°C° 0.2 mm 11 m/S 659 mmHg 76%
    13:00 0°C° 1 mm 10 m/S 658 mmHg 79%
    14:00 -1°C° 1 mm 9 m/S 658 mmHg 82%
    15:00 -1°C° 1 mm 9 m/S 657 mmHg 85%
    16:00 -1°C° 1.7 mm 8 m/S 657 mmHg 88%
    17:00 -1°C° 1.7 mm 7 m/S 657 mmHg 91%
    18:00 -1°C° 1.7 mm 6 m/S 657 mmHg 94%
    19:00 -2°C° 2 mm 6 m/S 657 mmHg 95%
    20:00 -2°C° 2 mm 6 m/S 657 mmHg 95%
    21:00 -2°C° 2 mm 6 m/S 658 mmHg 95%
    22:00 -3°C° 1.4 mm 6 m/S 657 mmHg 95%
    23:00 -2°C° 1.4 mm 5 m/S 657 mmHg 95%

    24 Januar, Donnerstag

    Zeit Temperatur Niederschläge Wind Luftdruck Luftfeuchtigkeit
    00:00 -2°C° 1.4 mm 4 m/S 657 mmHg 95%
    01:00 -3°C° 0.6 mm 4 m/S 657 mmHg 95%
    02:00 -3°C° 0.6 mm 4 m/S 656 mmHg 94%
    03:00 -4°C° 0.6 mm 4 m/S 656 mmHg 94%
    04:00 -4°C° 0.4 mm 4 m/S 656 mmHg 94%
    05:00 -4°C° 0.4 mm 4 m/S 656 mmHg 93%
    06:00 -5°C° 0.4 mm 4 m/S 656 mmHg 93%
    07:00 -4°C° 0.2 mm 4 m/S 657 mmHg 91%
    08:00 -5°C° 0.2 mm 5 m/S 657 mmHg 89%
    09:00 -5°C° 0.2 mm 5 m/S 658 mmHg 87%
    10:00 -5°C° 0.1 mm 6 m/S 658 mmHg 86%
    11:00 -4°C° 0.1 mm 6 m/S 658 mmHg 84%
    12:00 -4°C° 0.1 mm 7 m/S 658 mmHg 83%
    13:00 -4°C° 0.1 mm 7 m/S 658 mmHg 84%
    14:00 -4°C° 0.1 mm 7 m/S 658 mmHg 85%
    15:00 -4°C° 0.1 mm 7 m/S 658 mmHg 86%
    16:00 -5°C° 0.5 mm 6 m/S 658 mmHg 88%
    17:00 -5°C° 0.5 mm 6 m/S 659 mmHg 91%
    18:00 -6°C° 0.5 mm 6 m/S 659 mmHg 93%
    19:00 -5°C° 1.4 mm 6 m/S 660 mmHg 93%
    20:00 -5°C° 1.4 mm 6 m/S 660 mmHg 93%
    21:00 -5°C° 1.4 mm 6 m/S 661 mmHg 93%
    22:00 -5°C° 0.7 mm 5 m/S 661 mmHg 94%
    23:00 -5°C° 0.7 mm 5 m/S 662 mmHg 94%

    25 Januar, Freitag

    Zeit Temperatur Niederschläge Wind Luftdruck Luftfeuchtigkeit
    00:00 -4°C° 0.7 mm 4 m/S 662 mmHg 95%
    01:00 -4°C° 0.1 mm 4 m/S 662 mmHg 95%
    02:00 -4°C° 0.1 mm 4 m/S 663 mmHg 96%
    03:00 -4°C° 0.1 mm 4 m/S 663 mmHg 96%
    04:00 -4°C° 0.1 mm 4 m/S 663 mmHg 96%
    05:00 -4°C° 0.1 mm 3 m/S 663 mmHg 96%
    06:00 -4°C° 0.1 mm 3 m/S 664 mmHg 96%
    07:00 -2°C° 0.1 mm 3 m/S 664 mmHg 95%
    08:00 -3°C° 0.1 mm 4 m/S 665 mmHg 95%
    09:00 -2°C° 0.1 mm 4 m/S 666 mmHg 95%
    10:00 -2°C° 0.1 mm 5 m/S 666 mmHg 95%
    11:00 -2°C° 0.1 mm 5 m/S 666 mmHg 96%
    12:00 -2°C° 0.1 mm 5 m/S 667 mmHg 96%
    13:00 -1°C° 0.2 mm 5 m/S 667 mmHg 96%
    14:00 -1°C° 0.2 mm 5 m/S 667 mmHg 96%
    15:00 -1°C° 0.2 mm 4 m/S 667 mmHg 96%
    16:00 -2°C° 0.2 mm 4 m/S 668 mmHg 97%
    17:00 -2°C° 0.2 mm 4 m/S 669 mmHg 97%
    18:00 -1°C° 0.2 mm 3 m/S 669 mmHg 98%
    19:00 -1°C° 0.1 mm 3 m/S 670 mmHg 98%
    20:00 -1°C° 0.1 mm 3 m/S 670 mmHg 98%
    21:00 -2°C° 0.1 mm 3 m/S 671 mmHg 98%
    22:00 -2°C° 0 mm 3 m/S 671 mmHg 98%
    23:00 -2°C° 0 mm 3 m/S 671 mmHg 98%
    Mehr zeigen